Retour au catalogue

STARLINK-34794

ActifCommunicationsSSO
NORAD 65070·PAYLOAD·🇺🇸 United States

Lancé Jul 31, 2025 depuis Vandenberg Space Force Base

Loading…

Prochains Passages (prochaines 24 heures)

TLE

FraisSource: CelesTrak SupGP

Époque: Sep 15, 2026, 03:26 UTC

1 65070C 25165Q   26258.14354167 -.00112200  00000+0 -34784-2 0  2584
2 65070  97.2841 329.4267 0002095  78.5692 282.8875 15.33535866    13

Suivez STARLINK-34794 en temps réel avec AllMySat

Download on the App Store